Printer-friendly version

IAU Minor Planet Center

Minor Planet Center

MPEC 2006-T15 : 2006 SF281

The following Minor Planet Electronic Circular may be linked-to from your own Web pages, but must not otherwise be redistributed electronically.


Read MPEC 2006-T14 Read MPEC 2006-T16


M.P.E.C. 2006-T15                                Issued 2006 Oct. 2, 16:59 UT

     The Minor Planet Electronic Circulars contain information on unusual
         minor planets and routine data on comets.  They are published
   on behalf of Commission 20 of the International Astronomical Union by the
          Minor Planet Center, Smithsonian Astrophysical Observatory,
                          Cambridge, MA 02138, U.S.A.

             Prepared using the Tamkin Foundation Computer Network

                              MPC@CFA.HARVARD.EDU
          URL http://cfa-www.harvard.edu/iau/mpc.html  ISSN 1523-6714

                                  2006 SF281

Observations:
     K06SS1F* C2006 09 30.48927 03 11 17.12 +13 22 21.9          19.5 V ET015G96
     K06SS1F  C2006 09 30.49326 03 11 22.16 +13 23 17.6          19.8 V ET015G96
     K06SS1F  C2006 09 30.49727 03 11 27.27 +13 24 14.2          19.7 V ET015G96
     K06SS1F  C2006 09 30.50130 03 11 32.35 +13 25 09.9          19.7 V ET015G96
     K06SS1F  C2006 09 30.51146 03 11 45.24 +13 27 31.7          20.2 V ET015G96
     K06SS1F  C2006 09 30.51176 03 11 45.63 +13 27 37.0          19.8 V ET015G96
     K06SS1F  C2006 09 30.51206 03 11 46.03 +13 27 40.8          20.1 V ET015G96
     K06SS1F  C2006 09 30.51237 03 11 46.46 +13 27 45.5          19.2 V ET015G96
     K06SS1F  C2006 09 30.51315 03 11 47.43 +13 27 56.7          19.6 V ET015G96
     K06SS1F  C2006 09 30.51346 03 11 47.83 +13 28 00.3          18.9 V ET015G96
     K06SS1F  C2006 09 30.51378 03 11 48.22 +13 28 05.0          20.1 V ET015G96
     K06SS1F  C2006 09 30.51411 03 11 48.62 +13 28 09.2          19.7 V ET015G96
     K06SS1F  C2006 09 30.51551 03 11 50.42 +13 28 28.2          19.7 V ET015G96
     K06SS1F  C2006 09 30.51582 03 11 50.85 +13 28 33.1          20.2 V ET015G96
     K06SS1F  C2006 09 30.51612 03 11 51.21 +13 28 37.8          20.4 V ET015G96
     K06SS1F  C2006 09 30.51644 03 11 51.64 +13 28 41.9          19.7 V ET015G96

Observer details:
G96 Mt. Lemmon Survey.  Observer R. A. Kowalski.  Measurers E. C. Beshore,
    E. J. Christensen, G. J. Garradd, A. R. Gibbs, A. D. Grauer, R. E. Hill,
    R. A. Kowalski, S. M. Larson, R. H. McNaught.  1.5-m reflector + CCD.

Orbital elements:
2006 SF281                                               Earth MOID = 0.0119 AU
Epoch 2006 Sept. 22.0 TT = JDT 2454000.5                MPC
M 355.08087              (2000.0)            P               Q
n   0.53669605     Peri.  358.02539     +0.98917488     -0.14667019
a   1.4996288      Node    10.41197     +0.13497713     +0.89720325
e   0.3242709      Incl.    1.45006     +0.05756938     +0.41655035
P   1.84           H   27.1           G   0.15           U   9
Residuals in seconds of arc
060930 G96  0.0   0.4+    060930 G96  0.0   0.0     060930 G96  0.1-  0.7-
060930 G96  0.1-  0.1-    060930 G96  0.5+  0.3+    060930 G96  0.4+  0.1-
060930 G96  0.4+  0.2+    060930 G96  0.1+  0.7+    060930 G96  0.0   0.5+
060930 G96  0.1-  0.6-    060930 G96  0.2+  0.0     060930 G96  0.4+  0.1+
060930 G96  0.4-  0.8-    060930 G96  0.1-  0.2+
060930 G96  0.3-  0.3+    060930 G96  0.4-  0.2-

Ephemeris:
2006 SF281               a,e,i = 1.50, 0.32, 1                   q = 1.0133
Date    TT    R. A. (2000) Decl.     Delta      r     Elong.  Phase     V
2006 10 02    03 43.38   +18 27.3    0.0185   1.013   130.8    48.5    20.3
2006 10 03    04 00.23   +20 53.5    0.0205   1.013   127.4    51.7    20.6
2006 10 04    04 14.38   +22 48.5    0.0225   1.013   124.7    54.2    20.9
2006 10 05    04 26.32   +24 19.9    0.0247   1.014   122.7    56.1    21.1
2006 10 06    04 36.46   +25 33.5    0.0269   1.014   121.2    57.5    21.4
2006 10 07    04 45.13   +26 33.6    0.0292   1.015   120.1    58.4    21.6
2006 10 08    04 52.58   +27 23.3    0.0315   1.015   119.3    59.1    21.7
2006 10 09    04 59.03   +28 04.7    0.0338   1.016   118.8    59.5    21.9
2006 10 10    05 04.63   +28 39.8    0.0361   1.016   118.5    59.7    22.1
2006 10 11    05 09.52   +29 09.7    0.0385   1.017   118.3    59.8    22.2
2006 10 12    05 13.79   +29 35.4    0.0408   1.018   118.3    59.6    22.3

Timothy B. Spahr             (C) Copyright 2006 MPC           M.P.E.C. 2006-T15

Read MPEC 2006-T14 Read MPEC 2006-T16


Our Web policy. Index to the CBAT/MPC/ICQ pages.


Valid HTML 4.01!